Theta_e
316 310 308 307 298 292 288 290 295 296 296 299 301 300 300 303 299 293 321 330 331 333 341 344 347 347 344 344 344 344 342 341 341 344 344 346 345 344 341 339 337 336 338 339 339 338 338 338 336
313 312 307 299 291 286 287 290 295 296 300 303 304 302 304 304 316 319 322 329 332 338 342 344 345 346 344 343 344 344 342 341 341 342 342 345 345 343 340 338 336 335 337 338 337 338 338 337 336
313 307 303 295 287 286 287 291 295 296 298 297 298 305 307 308 316 320 325 331 335 339 342 344 345 347 344 344 344 343 342 340 340 342 342 344 344 342 339 337 336 335 336 337 336 337 337 336 335
306 303 298 291 288 289 290 294 296 296 296 299 300 303 308 317 321 324 331 331 336 339 342 342 346 347 345 344 342 340 339 339 339 340 341 344 343 341 338 336 334 334 336 336 336 338 337 335 335
302 298 292 289 289 291 292 296 296 295 295 296 302 300 306 319 326 329 331 333 335 337 340 342 345 345 345 344 341 340 339 337 337 339 340 342 341 339 336 335 333 333 335 334 334 337 337 336 335
297 296 289 287 288 291 294 296 296 294 294 296 302 304 310 317 326 329 332 331 336 336 339 342 338 341 343 343 342 341 340 337 337 337 339 340 340 337 335 334 332 332 334 332 334 336 335 334 332
296 292 289 289 289 290 294 297 294 295 294 297 305 301 305 314 326 330 331 332 335 337 338 339 340 339 336 339 339 339 338 337 337 338 338 338 337 335 334 333 331 331 333 332 334 333 332 332 331
298 295 289 290 290 290 294 295 296 297 297 298 305 300 302 317 327 329 331 332 333 336 337 337 337 338 338 336 333 334 335 335 335 335 333 332 332 332 331 330 331 330 332 331 332 332 331 331 329
298 291 288 290 290 292 294 294 295 296 298 300 300 304 306 320 326 327 331 333 332 335 336 337 336 336 336 335 331 330 331 331 330 329 326 324 324 323 321 325 329 330 330 331 331 330 329 326 325
295 290 291 292 291 293 295 294 296 297 295 299 300 307 311 319 324 325 326 328 329 331 334 337 337 337 335 337 331 330 330 327 324 323 322 321 320 318 319 321 326 329 328 329 329 326 321 316 311
292 291 293 292 293 295 296 293 295 294 294 296 298 303 312 316 320 324 325 326 329 331 334 335 336 336 336 336 334 333 328 324 321 320 318 318 317 317 315 317 318 318 318 316 316 312 311 310 310
291 293 294 296 296 294 294 295 292 294 296 296 300 306 312 316 321 323 323 321 325 327 332 334 335 335 336 335 335 334 331 324 320 318 317 315 314 313 312 313 313 314 312 309 308 308 308 308 308
292 291 293 296 294 293 296 292 293 294 296 296 297 308 312 318 321 324 326 322 323 326 329 331 334 334 335 334 334 335 332 327 322 318 318 316 313 312 311 311 311 311 309 308 306 306 306 306 306
294 293 292 293 293 294 292 290 291 292 293 295 297 305 309 313 316 315 315 320 319 327 328 329 331 333 334 334 333 333 333 329 324 319 319 316 314 312 310 309 310 308 308 307 305 305 304 303 304
295 289 290 291 292 292 293 288 292 292 292 293 294 296 304 309 311 313 318 321 321 323 328 328 330 332 333 333 333 334 333 330 326 321 320 317 315 312 311 310 309 311 311 309 306 305 301 302 304
290 288 284 287 292 292 290 285 290 292 292 292 292 291 294 300 308 311 313 316 319 319 324 328 331 331 332 333 333 334 334 332 329 325 321 319 316 313 313 312 312 312 312 311 306 302 301 300 300
287 281 283 288 292 292 289 286 290 292 292 293 292 292 293 294 296 302 310 312 315 319 320 325 329 329 331 332 332 332 332 332 331 327 323 322 318 314 313 313 312 312 311 308 303 300 300 298 296
282 283 284 283 289 290 288 289 292 293 291 293 292 293 293 293 295 298 301 309 313 315 319 323 327 329 330 331 330 330 332 332 332 330 326 325 322 317 315 314 313 313 311 306 302 299 294 296 294
285 284 283 285 290 289 289 288 291 293 291 292 291 292 292 293 298 297 297 298 304 310 313 318 322 326 328 328 328 329 329 330 331 331 331 326 324 321 317 316 314 314 310 306 301 296 294 290 292
286 283 282 286 289 289 287 288 290 291 292 293 293 291 291 292 293 294 295 295 296 303 311 315 319 324 327 329 330 330 330 331 332 332 331 329 326 323 320 318 315 314 310 304 300 297 293 292 293
285 284 283 285 285 285 285 284 286 289 290 291 292 293 293 292 293 293 293 294 294 295 300 311 317 321 326 329 327 315 320 318 323 328 329 329 327 325 322 320 317 314 311 305 301 299 296 292 291
283 289 287 286 284 280 283 277 283 286 288 289 291 291 290 290 292 293 294 294 294 294 296 304 313 319 324 327 325 324 325 324 325 327 328 327 327 326 324 321 318 316 313 308 303 301 298 297 291
287 290 287 285 282 281 280 279 282 284 286 289 289 290 290 290 290 292 294 295 295 295 294 300 309 316 321 325 325 325 324 325 314 313 322 322 323 325 324 322 318 316 315 310 305 302 300 299 296
291 287 285 283 280 276 280 281 279 282 285 286 289 290 293 294 294 295 295 295 297 297 296 300 307 311 315 322 322 322 321 311 309 307 315 316 317 313 316 320 319 317 315 312 306 304 301 300 300
286 284 278 275 275 276 278 278 281 286 287 287 288 290 290 292 293 293 294 295 295 297 297 299 304 307 309 313 312 314 315 310 310 308 311 310 313 307 312 311 314 316 315 314 309 304 302 301 300
285 285 278 271 272 275 280 277 283 287 289 289 288 289 292 293 294 293 294 295 294 295 297 298 300 303 306 308 308 308 309 309 309 308 307 308 312 314 316 311 312 312 313 312 309 306 304 302 301
285 282 285 279 268 273 278 281 287 287 288 291 292 293 293 293 294 295 295 295 295 295 296 297 298 298 300 303 304 305 305 306 306 304 303 303 302 302 302 303 308 310 310 309 308 306 303 302 301
286 288 281 278 270 268 276 277 280 284 289 290 291 291 292 293 294 295 294 294 294 294 295 296 297 298 298 299 300 301 302 302 303 302 301 300 299 299 298 298 299 300 305 306 306 306 304 302 302
284 283 282 282 279 273 270 277 284 286 288 290 290 291 292 293 294 294 294 294 294 295 295 296 296 297 298 298 298 298 299 300 300 300 300 299 298 297 296 297 299 301 302 303 303 304 303 300 301
285 286 285 280 277 278 278 281 288 288 291 291 291 291 292 293 293 293 293 293 293 293 294 295 296 296 297 297 298 298 298 298 298 298 298 297 297 295 295 293 294 297 299 299 300 300 300 298 297
Wind_Speed
6 5 2 6 6 6 0 3 1 2 1 1 3 5 6 3 4 4 0 6 12 12 8 7 13 13 15 14 14 12 14 12 12 12 12 13 17 18 18 17 15 15 15 17 17 16 17 17 17
3 1 5 3 6 4 4 3 5 3 5 7 6 4 3 2 2 4 8 6 12 11 8 7 13 13 15 15 13 12 13 12 12 12 12 13 16 17 17 15 15 14 15 16 16 17 17 17 17
2 3 5 5 4 5 5 4 5 1 4 3 4 4 4 4 2 8 3 12 11 10 8 7 12 14 15 14 13 12 12 13 12 12 12 12 15 17 15 15 14 13 14 15 14 14 16 16 16
0 5 6 5 3 3 4 5 5 5 1 3 3 6 2 2 8 7 10 13 11 9 8 10 13 14 15 14 14 13 13 12 11 12 13 13 16 16 15 14 13 13 13 15 14 17 16 15 16
5 4 4 4 4 3 1 4 7 4 2 2 2 3 1 2 2 9 12 11 12 8 8 10 13 14 14 14 14 13 12 12 12 12 13 13 15 15 13 13 13 13 14 14 13 13 15 16 16
5 4 5 2 3 4 1 4 5 4 1 3 5 5 3 3 6 8 12 9 9 10 9 9 11 13 14 14 14 13 12 12 12 12 13 13 14 13 12 13 13 14 14 14 13 15 18 17 16
7 5 6 5 4 2 5 7 4 6 4 4 9 5 3 1 5 8 8 8 7 8 8 6 7 9 10 11 11 12 12 12 12 11 11 11 12 12 12 12 14 14 15 14 15 16 16 16 16
5 5 3 2 5 5 4 5 5 6 6 2 3 4 4 5 9 7 7 7 7 8 8 8 6 7 6 7 10 10 10 9 9 9 9 9 12 11 9 9 12 15 15 14 16 16 16 15 14
3 6 2 4 5 3 5 4 2 1 5 1 3 6 3 8 9 8 8 7 7 6 10 9 8 6 6 6 6 8 9 9 8 8 9 7 4 6 7 7 11 13 14 14 16 15 15 15 14
6 4 8 4 3 4 5 3 7 4 3 2 2 1 3 9 11 14 11 12 11 12 11 12 12 10 7 6 6 5 5 4 4 5 6 4 5 4 5 6 10 11 12 13 15 14 13 9 4
3 6 5 3 2 3 6 1 3 7 3 8 10 6 6 6 8 13 12 10 15 11 9 12 14 13 12 8 6 4 2 3 3 5 5 5 4 3 3 3 3 4 6 4 6 6 4 6 4
4 2 5 4 1 3 4 3 2 6 8 3 9 8 9 10 14 14 13 9 10 11 13 12 13 14 14 9 7 6 5 3 3 4 6 4 3 4 4 3 4 3 3 5 4 3 5 5 5
3 3 2 3 2 0 4 3 5 8 9 3 3 8 12 13 15 12 11 6 6 11 12 12 12 14 14 13 9 8 8 6 5 5 5 5 4 4 4 4 3 4 3 4 4 4 4 5 5
6 4 3 2 3 3 3 2 2 5 3 5 4 9 10 12 15 6 6 9 10 11 13 11 12 13 13 13 14 10 8 9 7 6 7 6 5 5 4 4 4 3 4 3 4 4 4 4 4
4 3 3 3 1 1 3 4 9 5 3 1 7 8 9 12 6 13 16 15 14 12 10 13 13 12 13 14 12 11 10 8 8 7 8 8 7 6 6 5 4 5 4 6 4 4 4 4 3
4 5 2 2 3 1 3 9 5 3 6 6 6 6 9 11 14 12 10 11 9 8 11 12 12 13 13 12 10 9 9 9 9 9 8 10 9 9 7 6 6 6 5 4 5 5 4 4 3
6 3 3 6 6 2 3 6 5 1 4 2 5 7 9 9 11 13 13 11 10 12 11 12 13 14 15 12 9 9 11 9 8 8 9 13 12 10 8 7 6 6 5 4 4 2 3 5 3
6 3 3 4 3 2 2 9 9 7 4 9 9 10 9 10 16 12 13 13 12 11 11 14 12 14 14 10 7 6 7 9 9 9 10 13 11 13 10 7 7 8 6 5 5 5 3 2 5
6 4 5 3 1 3 7 8 11 10 7 10 11 11 11 12 15 8 9 9 10 8 9 12 13 15 11 9 10 10 11 9 9 9 14 14 12 13 13 9 9 9 9 9 8 4 5 2 3
2 3 2 3 1 4 5 11 10 8 10 10 10 10 12 8 9 9 9 8 10 15 15 14 15 15 14 11 11 9 11 10 10 9 11 14 15 14 13 13 11 13 9 9 10 9 4 3 8
3 5 4 5 3 1 5 9 7 6 6 7 11 11 9 10 11 10 8 9 8 10 11 14 17 17 16 16 7 3 4 3 4 8 9 11 15 15 15 15 13 13 12 11 13 13 14 7 9
3 7 4 4 3 4 2 8 6 5 10 8 13 10 8 9 9 8 8 8 8 10 8 9 12 14 14 14 11 15 14 12 10 11 9 8 13 14 15 16 14 14 11 12 14 12 13 8 8
6 4 4 3 3 2 3 2 8 3 6 13 9 10 9 8 7 7 7 6 6 6 5 7 8 9 11 14 15 13 12 9 3 3 10 8 8 13 15 15 15 14 11 13 14 13 13 11 10
8 7 7 5 3 3 8 8 6 5 8 3 4 7 7 6 7 6 5 6 6 6 4 2 6 6 7 12 12 13 13 7 5 5 7 6 6 4 6 11 13 13 13 13 14 16 17 15 13
4 7 2 4 3 7 1 2 9 8 7 5 5 8 9 8 7 6 7 8 7 8 6 2 3 4 4 7 7 8 8 8 9 7 7 7 7 3 7 5 8 9 12 12 12 13 13 15 14
9 10 8 9 5 4 2 8 8 5 6 4 2 4 5 7 6 6 6 5 6 7 6 4 1 3 5 5 6 4 5 4 6 7 5 6 7 8 9 9 8 8 8 9 9 8 10 12 12
7 7 6 8 3 4 5 7 10 4 1 4 7 7 8 8 8 8 8 7 6 6 6 6 3 1 3 5 5 6 5 6 6 6 5 4 5 4 6 7 8 8 7 5 6 8 10 11 12
6 8 5 3 3 4 4 5 6 1 7 5 7 7 8 7 8 7 6 5 3 3 4 4 3 2 2 3 3 4 5 6 5 5 6 7 6 6 7 6 7 7 9 9 9 9 8 11 10
3 3 3 5 6 7 1 7 9 8 7 9 6 6 6 7 7 7 7 7 6 5 4 4 4 4 4 2 2 4 4 4 5 5 6 6 6 7 7 7 7 8 9 9 9 10 8 10 11
3 10 8 7 7 3 4 13 5 6 8 9 5 3 5 6 3 4 6 6 5 5 6 6 6 6 6 6 5 6 5 4 5 6 6 6 7 6 7 7 8 8 9 8 10 10 9 9 11
Wind_Direction
322 337 46 40 54 65 87 236 228 148 159 207 107 144 171 113 159 207 274 156 134 148 155 162 129 129 125 124 116 112 110 115 119 103 102 103 114 108 99 96 95 99 102 96 88 98 99 96 90
349 314 38 80 88 80 267 252 170 206 157 124 106 102 67 119 103 96 119 179 145 143 148 151 135 139 136 120 117 118 120 120 114 115 110 104 115 108 101 98 99 101 106 101 92 95 101 99 95
296 41 80 93 107 165 189 210 188 152 172 167 97 58 142 163 24 157 215 142 138 139 145 142 139 142 132 127 126 124 123 120 121 119 110 105 116 105 99 100 101 106 109 99 97 101 99 97 94
184 15 38 83 185 229 205 187 179 139 319 56 117 76 347 251 154 187 138 137 134 141 143 148 149 144 137 132 134 130 127 124 126 125 113 110 111 105 103 104 106 107 106 99 92 109 104 99 97
39 53 63 77 297 288 198 178 150 135 174 105 129 173 350 16 44 137 140 146 144 143 144 154 150 146 142 142 139 135 135 133 133 131 121 113 114 108 111 113 112 112 114 102 100 107 113 108 102
49 93 70 136 259 305 45 160 142 145 185 155 79 118 192 348 126 153 146 147 149 146 151 155 151 147 151 146 142 142 142 140 138 137 133 126 122 123 127 124 121 119 113 109 104 100 93 92 88
117 90 174 151 178 243 207 146 180 156 159 236 158 127 268 251 180 147 141 133 137 144 146 149 154 151 150 145 144 147 150 147 145 145 137 130 122 127 130 129 126 124 120 109 109 107 104 101 93
109 91 115 188 182 220 173 157 156 146 206 57 166 185 236 203 149 128 130 135 140 152 155 154 149 153 150 150 151 152 150 145 144 133 124 115 116 119 126 126 129 129 120 119 112 111 107 103 94
124 68 159 202 163 193 156 139 167 52 117 179 204 159 245 140 124 126 155 156 157 166 165 162 159 156 147 147 161 152 146 147 130 118 112 99 114 124 125 135 128 131 123 124 117 113 107 95 86
87 117 205 208 189 183 164 159 165 148 137 223 277 302 82 131 155 166 177 178 180 183 179 173 173 168 155 160 151 149 143 140 134 133 135 126 131 137 133 126 129 126 127 124 125 118 105 89 79
150 174 186 235 185 149 154 139 171 129 238 216 203 185 159 159 173 183 194 189 184 182 182 179 176 177 173 170 163 155 132 132 140 149 146 139 127 121 116 112 112 120 103 88 104 102 85 94 96
115 159 169 191 201 108 154 121 231 190 216 252 211 179 163 179 187 194 202 194 175 178 187 182 181 177 177 179 172 165 162 154 161 167 156 145 139 141 140 134 141 133 119 121 118 109 108 98 94
142 158 157 130 155 151 118 227 226 255 247 265 84 158 187 192 202 209 207 200 180 189 191 187 181 179 182 179 183 176 177 173 176 167 167 153 153 157 145 151 152 146 133 132 122 123 122 116 107
180 136 159 204 168 171 181 197 150 278 263 226 147 201 202 201 207 206 203 207 199 199 196 185 191 185 179 186 186 190 183 175 172 177 180 167 161 161 160 161 162 152 148 140 139 142 134 121 124
107 104 339 233 240 201 158 276 236 249 323 253 224 233 230 235 218 217 215 214 204 208 193 191 189 189 186 188 187 187 193 178 173 184 180 177 169 168 167 172 167 168 168 150 137 121 100 109 91
74 52 98 317 146 328 99 266 267 331 181 234 250 240 242 248 238 235 227 222 213 201 193 191 190 190 192 190 187 186 183 182 184 180 183 183 179 174 176 182 188 175 170 164 152 145 128 114 109
9 183 192 316 199 124 148 264 273 51 56 279 255 246 246 254 254 236 229 221 212 210 200 196 193 191 193 193 189 185 184 185 186 185 187 187 182 179 183 190 186 168 156 143 138 110 143 146 126
188 185 221 236 211 164 199 260 278 274 293 273 281 275 251 251 249 235 223 220 214 208 205 205 197 197 193 190 187 185 189 195 189 187 191 189 191 183 186 189 181 174 166 157 161 152 90 100 128
138 156 172 228 68 176 233 265 268 282 293 272 256 256 255 247 256 249 229 213 210 216 202 201 194 201 187 189 190 197 205 200 199 199 189 189 194 193 188 188 180 178 182 179 158 115 133 113 139
121 127 260 301 56 160 306 273 261 262 256 239 252 255 251 261 269 265 248 225 205 216 210 207 203 197 195 196 203 202 203 209 206 203 198 187 192 192 192 186 188 185 175 168 172 163 157 136 195
201 176 204 213 7 19 340 289 265 280 264 272 261 249 256 244 267 273 270 237 212 219 207 204 204 201 198 201 176 86 80 62 186 210 206 199 188 194 195 197 189 188 182 186 185 182 178 181 200
201 201 175 162 98 237 40 285 293 277 295 294 274 268 273 261 260 265 271 274 245 230 206 208 206 203 201 187 182 192 201 205 209 210 207 201 194 191 202 195 194 194 193 193 191 189 191 158 192
211 124 155 89 107 40 319 336 271 340 294 266 305 300 291 273 257 286 312 309 299 291 233 215 198 193 190 189 191 194 207 214 142 157 195 199 200 201 195 195 192 194 195 197 193 191 196 201 181
143 82 48 57 88 297 208 176 273 208 216 293 336 350 352 27 34 9 344 10 4 13 17 215 198 196 178 187 194 196 202 170 159 162 187 194 197 202 202 196 196 199 201 195 195 198 199 204 209
91 83 355 343 360 229 92 140 249 265 244 235 288 332 334 340 356 343 352 355 350 10 13 8 188 199 183 179 173 184 192 178 186 176 186 181 199 198 207 194 199 204 210 205 198 199 204 206 208
186 158 163 194 205 260 87 238 252 244 262 276 293 290 343 357 358 339 334 355 342 353 20 16 78 211 189 186 190 183 177 180 197 192 186 196 205 211 210 204 206 213 207 209 197 194 206 209 213
198 209 152 108 35 49 226 292 301 294 110 40 36 17 12 353 354 358 12 15 349 348 355 359 359 15 203 200 196 204 200 202 212 205 186 193 191 191 195 201 212 222 223 212 199 213 208 204 213
160 155 83 7 155 252 263 261 228 255 232 106 58 35 10 3 6 359 14 3 337 339 340 349 344 275 254 228 225 228 219 221 226 211 205 199 201 191 195 202 203 204 221 223 226 228 220 213 216
136 180 90 128 156 180 234 255 223 227 129 111 80 46 7 344 353 346 360 356 339 333 332 348 337 314 306 299 270 248 243 234 234 231 236 216 188 194 199 202 213 217 218 214 216 227 221 217 223
275 206 167 168 218 248 164 253 321 164 132 115 98 18 341 331 314 350 2 346 349 359 3 0 350 349 343 333 322 297 293 267 252 250 244 219 215 203 205 203 208 213 217 209 214 221 222 217 224